Flag for Senegal Weather past 2 weeks in Dakar, Senegal

Now
66 °F

Passing clouds.


Feels Like: 66 °F
Forecast: 66 / 74 °F
Wind: 14 mph from Northwest

Location: Dakar / Yoff

Current Time: Apr 19, 2015 at 3:06:36 AM

Latest Report: Apr 19, 2015 at 2:30 AM


Visibility: 5 mi

Pressure: 29.86 "Hg

Humidity: 94%

Dew point: 64 °F

Location of DakarLocation

Historic Weather in Dakar — Graph

°F

Dakar temperature yesterday

Maximum temperature yesterday: 73 °F (at 12:30 PM)
Minimum temperature yesterday: 66 °F (at 12:00 AM)
Average temperature yesterday: 69 °F

Past Weeks' High & Low Weather Summary

 TemperatureHumidityPressure
High79 °F (Apr 11, 1:00 PM)100% (Apr 4, 8:00 AM)29.98 "Hg (Apr 4, 8:00 AM)
Low64 °F (Apr 7, 5:30 AM)54% (Apr 11, 1:00 PM)29.77 "Hg (Apr 11, 3:30 PM)
Average69 °F82%29.87 "Hg
* Reported Apr 4 2:00 AM — Apr 19 2:00 AM, Dakar, Weather by CustomWeather, © 2015

Note: Actual official high and low records may vary slightly from our data, if they occured in-between our weather recording intervals... More about our weather records

Advertising

Dakar weather history for previous 24 hours

 ConditionsComfort  
Time TempWeatherWind HumidityBarometerVisibility
2:00 AM
Sun, Apr 19
66 °FPassing clouds.13 mph94%29.86 "Hg5 mi
1:30 AM68 °FPassing clouds.14 mph88%29.89 "Hg5 mi
1:00 AM68 °FPassing clouds.15 mph94%29.89 "Hg5 mi
12:30 AM68 °FPassing clouds.12 mph94%29.89 "Hg5 mi
12:00 AM68 °FClear.9 mph88%29.92 "Hg5 mi
11:30 PM
Sat, Apr 18
68 °FClear.8 mph88%29.92 "Hg5 mi
11:00 PM68 °FClear.9 mph94%29.92 "Hg10 mi
10:30 PM68 °FClear.8 mph94%29.92 "Hg10 mi
10:00 PM68 °FClear.9 mph88%29.89 "Hg10 mi
9:00 PM68 °FClear.9 mph88%29.89 "Hg10 mi
8:30 PM68 °FClear.9 mph88%29.89 "Hg10 mi
8:00 PM68 °FClear.9 mph88%29.86 "Hg10 mi
7:30 PM68 °FClear.10 mph88%29.86 "Hg10 mi
7:00 PM70 °FSunny.No wind83%29.86 "Hg10 mi
6:30 PM70 °FPassing clouds.12 mph83%29.86 "HgN/A
6:00 PM70 °FPassing clouds.12 mph83%29.86 "HgN/A
5:30 PM72 °FPassing clouds.12 mph78%29.86 "HgN/A
5:00 PM73 °FPassing clouds.10 mph78%29.86 "HgN/A
4:30 PM73 °FPassing clouds.9 mph78%29.86 "HgN/A
4:00 PM73 °FPassing clouds.9 mph74%29.86 "HgN/A
3:30 PM73 °FPassing clouds.14 mph74%29.89 "HgN/A
3:00 PM73 °FPassing clouds.12 mph74%29.89 "HgN/A
2:30 PM73 °FPassing clouds.12 mph74%29.89 "HgN/A
2:00 PM73 °FPassing clouds.13 mph74%29.92 "HgN/A
1:30 PM73 °FPassing clouds.13 mph74%29.92 "HgN/A
1:00 PM73 °FPassing clouds.13 mph78%29.92 "Hg5 mi
12:30 PM73 °FPassing clouds.12 mph78%29.92 "Hg5 mi
12:00 PM72 °FPassing clouds.13 mph83%29.92 "Hg5 mi
11:30 AM72 °FPassing clouds.14 mph83%29.92 "Hg5 mi
11:00 AM72 °FPassing clouds.13 mph78%29.95 "Hg5 mi
10:30 AM72 °FPassing clouds.10 mph83%29.95 "Hg5 mi
10:00 AM70 °FPassing clouds.10 mph88%29.95 "Hg5 mi
9:30 AM70 °FPassing clouds.9 mph88%29.92 "Hg5 mi
9:00 AM68 °FPassing clouds.10 mph94%29.92 "Hg5 mi
8:30 AM66 °FScattered clouds.9 mph100%29.92 "Hg4 mi
8:00 AM66 °FScattered clouds.7 mph94%29.89 "Hg4 mi
7:30 AM66 °FFog.8 mph94%29.89 "Hg2 mi
7:00 AM66 °FScattered clouds.7 mph94%29.89 "Hg4 mi
6:30 AM66 °FPassing clouds.6 mph94%29.89 "Hg5 mi
6:00 AM66 °FPassing clouds.7 mph94%29.89 "Hg5 mi
5:30 AM66 °FPassing clouds.6 mph94%29.89 "Hg5 mi
5:00 AM66 °FPassing clouds.6 mph94%29.89 "Hg5 mi
4:30 AM66 °FPassing clouds.6 mph94%29.86 "Hg5 mi
4:00 AM66 °FPassing clouds.6 mph94%29.86 "Hg5 mi
3:30 AM66 °FPassing clouds.7 mph94%29.89 "Hg5 mi
3:00 AM66 °FPassing clouds.7 mph94%29.89 "Hg5 mi
Weather by CustomWeather, © 2015

See weather overviewHow to use our weather pages